Date,TemperatureHighF,TemperatureAvgF,TemperatureLowF,DewpointHighF,DewpointAvgF,DewpointLowF,HumidityHigh,HumidityAvg,HumidityLow,PressureMaxIn,PressureMinIn,WindSpeedMaxMPH,WindSpeedAvgMPH,GustSpeedMaxMPH,PrecipitationSumIn
2014-1-1,19.2,16.6,12.6,8.6,4.5,-0.5,70,59,51,30.46,30.29,5,2,14,0.00
2014-1-2,12.6,8.3,-2.3,5.2,0.5,-15.7,75,70,52,30.40,30.02,2,1,9,0.00
2014-1-3,5.9,-0.7,-7.6,-3.0,-11.3,-18.5,66,60,51,30.50,30.03,2,1,7,0.00
2014-1-4,32.0,17.5,-0.8,7.3,0.0,-10.1,65,48,33,30.45,30.14,5,1,15,0.01
2014-1-5,40.2,29.6,20.3,37.8,15.2,5.8,91,56,41,30.26,29.61,2,1,8,0.00
2014-1-6,49.4,31.3,6.4,44.1,19.1,-11.6,89,61,36,29.67,29.33,7,4,25,0.20
2014-1-7,6.9,4.1,-0.5,-8.1,-13.9,-17.0,53,42,33,30.15,29.66,8,4,28,0.00
2014-1-8,19.6,13.2,6.6,4.4,-1.4,-9.6,62,52,44,30.35,30.15,5,2,15,0.00
2014-1-9,25.6,20.2,16.0,10.4,7.7,4.3,66,58,50,30.53,30.31,3,1,12,0.00
2014-1-10,38.1,29.0,17.4,28.5,21.4,7.2,82,73,63,30.34,29.93,1,0,5,0.09
2014-1-11,54.2,47.3,33.8,47.1,40.0,27.8,85,76,61,29.93,29.13,7,2,27,0.16
2014-1-12,41.2,35.7,30.6,30.3,26.4,22.0,79,69,62,29.87,29.30,7,2,21,0.01
2014-1-13,51.3,41.3,27.9,36.1,25.6,20.4,80,56,37,29.87,29.59,6,1,20,0.05
2014-1-14,43.6,40.1,31.5,39.7,35.5,24.2,88,84,74,29.73,29.54,2,0,5,0.27
2014-1-15,41.6,32.8,28.6,31.1,20.6,12.2,72,60,48,29.88,29.69,2,0,7,0.02
2014-1-16,34.8,29.3,25.2,19.1,14.8,12.1,74,55,44,29.89,29.74,2,0,9,0.00
2014-1-17,40.7,33.5,27.2,22.8,18.3,13.5,72,54,44,29.76,29.70,5,1,18,0.00
2014-1-18,29.1,24.5,19.9,18.8,14.7,9.1,80,66,57,29.76,29.66,2,1,12,0.00
2014-1-19,30.9,24.2,17.1,24.2,15.3,10.8,81,69,55,29.74,29.37,6,2,20,0.05
2014-1-20,30.8,21.5,8.4,26.0,14.1,-1.3,86,73,63,29.91,29.41,3,1,10,0.00
2014-1-21,8.0,0.3,-8.8,-2.3,-12.7,-21.7,63,54,41,30.04,29.91,2,1,7,0.00
2014-1-22,5.0,-3.8,-11.4,-9.6,-16.7,-24.9,65,53,46,30.02,29.90,2,0,5,0.00
2014-1-23,12.7,4.9,-2.4,-0.3,-5.4,-11.3,67,62,50,30.19,29.96,1,0,5,0.00
2014-1-24,18.6,10.8,1.2,-2.7,-5.2,-8.2,65,50,33,30.25,29.67,3,1,20,0.00
2014-1-25,27.5,21.4,13.1,17.5,5.2,-5.2,78,51,33,29.67,29.17,6,2,25,0.00
2014-1-26,24.7,13.2,6.0,12.0,1.2,-5.6,75,59,43,29.69,29.45,3,1,13,0.00
2014-1-27,37.8,20.3,6.7,22.6,4.3,-11.1,76,50,38,29.99,29.21,8,4,25,0.00
2014-1-28,11.2,5.8,0.9,-8.1,-12.9,-18.9,60,42,34,30.23,29.99,6,2,18,0.00
2014-1-29,16.6,9.1,-2.7,0.3,-7.8,-14.0,60,46,34,30.15,29.94,6,2,18,0.00
2014-1-30,28.8,20.4,7.9,3.1,-0.1,-4.2,58,41,30,30.26,29.83,7,2,22,0.01
2014-1-31,35.2,31.4,26.3,17.7,10.8,0.9,58,42,33,30.09,29.84,5,1,18,0.00
2014-2-1,41.4,32.8,25.5,28.3,21.5,14.4,75,63,41,30.15,29.78,3,0,20,0.21
2014-2-2,41.6,33.6,27.8,29.2,25.1,18.3,80,71,57,30.10,29.75,2,1,18,0.04
2014-2-3,27.5,24.8,21.0,16.2,12.9,9.7,69,60,51,30.27,30.10,2,1,9,0.00
2014-2-4,27.8,24.0,20.4,14.4,11.4,9.7,65,58,49,30.40,30.13,2,0,5,0.01
2014-2-5,26.1,21.6,13.0,21.7,15.8,5.0,84,78,64,30.20,29.62,2,1,9,0.00
2014-2-6,19.5,13.2,5.0,7.7,3.7,-2.3,74,66,56,30.25,30.08,2,0,12,0.03
2014-2-7,20.5,15.2,7.7,8.7,0.7,-5.1,72,53,39,30.20,30.10,5,1,16,0.00
2014-2-8,18.4,11.9,2.9,3.7,-1.8,-8.1,65,54,46,30.25,30.11,2,1,9,0.00
2014-2-9,21.0,16.9,12.3,14.2,8.5,2.3,82,70,56,30.16,30.03,2,1,7,0.00
2014-2-10,22.0,17.6,12.8,14.9,10.9,5.8,82,75,66,30.35,30.08,3,1,12,0.00
2014-2-11,17.3,13.5,10.4,8.9,6.6,4.0,78,74,60,30.58,30.35,2,1,9,0.00
2014-2-12,23.4,12.6,-0.6,6.2,1.1,-8.6,76,60,45,30.61,30.29,3,1,10,0.07
2014-2-13,26.3,20.1,12.6,20.5,10.7,-0.6,80,67,53,30.29,29.46,2,1,7,0.00
2014-2-14,30.9,25.6,20.0,21.8,17.9,14.8,81,73,57,29.82,29.40,5,2,13,0.00
2014-2-15,29.9,26.3,20.2,21.4,16.9,8.8,74,67,58,29.97,29.82,5,1,15,0.00
2014-2-16,20.2,16.2,12.0,11.4,8.5,2.9,77,71,61,30.27,29.97,3,1,13,0.00
2014-2-17,20.5,10.9,-1.7,3.3,-3.0,-10.3,72,54,38,30.55,30.20,2,1,7,0.01
2014-2-18,33.6,27.1,14.9,21.2,12.9,-1.7,65,55,36,30.18,29.95,13,2,29,0.00
2014-2-19,44.2,33.5,20.7,31.4,22.8,11.0,76,65,58,30.15,29.69,6,2,20,0.06
2014-2-20,43.7,34.6,24.0,30.2,25.5,19.0,85,70,49,30.25,29.95,3,1,16,0.32
2014-2-21,40.6,37.5,34.5,35.3,31.0,20.8,85,78,46,29.96,29.67,2,0,12,0.69
2014-2-22,47.3,41.1,35.4,23.4,16.1,0.8,52,37,16,30.01,29.85,8,2,23,0.00
2014-2-23,43.5,36.8,27.5,26.0,21.0,13.6,69,53,39,30.05,29.94,3,1,12,0.00
2014-2-24,27.1,22.7,17.4,18.9,11.1,3.9,81,62,44,30.14,29.97,7,2,20,0.01
2014-2-25,22.3,18.1,15.3,13.9,8.4,3.3,82,67,45,30.13,29.97,6,1,14,0.01
2014-2-26,18.4,13.3,5.1,10.2,-4.0,-12.5,73,47,29,30.02,29.87,7,2,20,0.00
2014-2-27,21.9,13.0,4.2,10.3,-1.8,-11.6,72,52,37,30.15,29.63,8,3,23,0.00
2014-2-28,13.4,7.9,3.8,1.5,-2.0,-6.0,72,64,52,30.48,30.15,3,1,8,0.00
2014-3-1,35.8,22.7,6.3,20.0,5.3,-6.1,69,48,33,30.40,30.13,3,1,13,0.03
2014-3-2,28.9,17.9,11.4,18.1,10.5,2.2,79,72,62,30.30,30.19,2,1,9,0.00
2014-3-3,12.3,8.7,5.4,4.4,-3.9,-8.1,76,57,41,30.47,30.24,5,2,10,0.00
2014-3-4,18.2,11.9,3.2,7.9,0.6,-9.6,72,60,48,30.48,30.33,2,1,7,0.00
2014-3-5,23.1,16.6,4.5,13.1,6.0,-6.5,74,63,46,30.68,30.32,3,1,12,0.02
2014-3-6,25.3,12.5,-4.4,1.0,-4.7,-14.1,70,48,31,30.76,30.45,3,1,9,0.03
2014-3-7,41.3,26.3,9.6,18.6,8.1,-6.5,56,46,39,30.45,29.98,3,1,8,0.05
2014-3-8,37.8,30.4,23.7,24.2,19.3,12.2,72,63,55,30.08,29.93,3,1,9,0.00
2014-3-9,31.4,27.7,21.8,20.4,12.4,6.3,71,53,40,30.20,29.93,5,1,12,0.00
2014-3-10,42.9,34.9,27.0,28.6,22.7,14.3,70,61,53,29.90,29.57,1,0,10,0.00
2014-3-11,51.4,43.8,38.1,31.7,29.3,26.8,72,58,40,29.79,29.58,3,1,10,0.00
2014-3-12,38.8,28.0,12.2,31.7,23.7,8.0,91,84,65,29.77,29.34,1,0,6,0.17
2014-3-13,16.9,11.3,6.8,7.4,4.0,1.8,83,72,57,30.16,29.69,3,1,15,0.00
2014-3-14,49.5,31.6,13.6,25.5,15.8,4.0,67,54,38,30.16,29.69,7,2,21,0.37
2014-3-15,45.5,37.5,24.7,33.8,26.8,11.3,82,66,41,30.21,29.69,7,2,20,0.06
2014-3-16,24.7,17.8,10.0,12.2,3.2,-0.6,65,53,43,30.42,30.20,5,2,14,0.00
2014-3-17,26.7,15.8,5.0,2.5,-0.7,-5.5,73,51,26,30.34,30.16,2,0,8,0.00
2014-3-18,42.3,27.2,11.8,13.6,5.9,-2.1,59,41,27,30.31,30.21,5,1,10,0.00
2014-3-19,46.5,38.3,27.9,30.4,17.9,5.7,68,45,25,30.26,29.81,8,3,28,0.03
2014-3-20,42.2,37.5,31.4,32.4,27.5,24.2,82,67,57,29.97,29.74,6,2,20,0.01
2014-3-21,36.1,31.1,26.2,26.2,19.7,16.6,80,63,46,30.15,29.97,6,2,15,0.01
2014-3-22,43.3,35.1,26.2,32.7,23.9,17.4,72,64,44,30.04,29.59,9,2,35,0.01
2014-3-23,33.4,23.2,18.7,23.7,10.3,4.2,76,58,46,30.22,30.02,6,2,15,0.00
2014-3-24,24.9,20.0,14.9,14.2,8.3,4.4,70,60,45,30.26,30.11,3,1,12,0.00
2014-3-25,37.8,26.7,15.2,18.0,9.7,4.3,76,51,25,30.11,29.86,5,1,14,0.00
2014-3-26,28.7,21.8,19.0,18.1,6.7,-2.0,72,52,34,30.25,29.93,9,3,20,0.00
2014-3-27,42.7,30.1,16.2,21.3,9.3,3.6,65,43,27,30.35,30.03,5,2,17,0.00
2014-3-28,54.5,43.8,34.4,42.1,32.8,21.3,79,66,52,30.16,29.75,5,2,17,0.29
2014-3-29,43.8,38.6,35.5,35.6,32.6,30.8,89,79,67,30.24,29.84,3,1,12,0.77
2014-3-30,36.7,34.3,31.7,32.3,28.6,24.6,91,80,67,29.99,29.78,3,1,16,0.60
2014-3-31,43.5,36.4,29.9,26.0,24.1,21.8,74,61,47,30.20,29.99,3,2,13,0.00
2014-4-1,56.9,41.0,25.6,32.8,27.9,21.4,87,62,37,30.18,29.85,5,1,9,0.00
2014-4-2,52.4,41.2,33.9,30.9,28.1,25.0,75,61,41,30.17,29.92,3,1,14,0.00
2014-4-3,43.8,35.9,26.6,25.1,23.1,20.6,80,61,43,30.23,30.06,2,1,8,0.00
2014-4-4,49.2,42.2,35.9,39.6,32.3,23.7,86,68,55,30.04,29.58,8,2,21,0.36
2014-4-5,45.8,38.9,33.7,39.9,28.0,20.5,85,65,47,30.12,29.63,8,3,20,0.04
2014-4-6,51.4,39.1,26.3,25.6,22.0,18.8,83,54,28,30.22,30.12,5,1,12,0.00
2014-4-7,52.1,40.1,31.4,36.2,28.0,15.2,87,65,23,30.13,29.53,9,1,21,0.61
2014-4-8,56.7,45.5,39.8,46.5,39.3,34.1,94,79,67,29.68,29.27,7,2,22,0.34
2014-4-9,45.5,40.6,35.1,34.7,24.7,14.6,84,57,29,29.98,29.67,5,1,15,0.01
2014-4-10,69.4,53.2,33.2,34.8,27.6,20.5,63,40,22,30.01,29.72,9,3,28,0.00
2014-4-11,63.4,52.2,42.3,44.5,36.2,24.6,87,57,32,30.03,29.81,3,1,15,0.10
2014-4-12,65.7,52.7,37.2,39.5,33.8,27.3,80,52,30,30.17,30.03,3,1,12,0.00
2014-4-13,82.8,64.1,46.9,50.2,43.8,30.3,75,50,31,30.06,29.74,12,2,22,0.06
2014-4-14,78.0,68.4,57.0,55.7,52.3,48.4,82,58,39,29.81,29.57,10,2,27,0.53
2014-4-15,65.2,43.4,28.0,55.5,36.3,14.3,89,77,56,30.06,29.44,6,2,22,0.54
2014-4-16,35.7,29.5,23.8,18.0,12.2,7.0,76,50,31,30.57,30.06,6,2,16,0.01
2014-4-17,55.2,40.3,24.9,20.6,17.6,14.0,69,43,21,30.65,30.44,7,2,20,0.00
2014-4-18,60.4,48.5,37.0,37.0,27.2,19.2,73,44,34,30.46,30.14,6,2,13,0.04
2014-4-19,51.3,43.6,36.2,36.2,28.9,24.7,73,57,36,30.41,30.21,6,1,14,0.00
2014-4-20,66.0,49.4,29.8,29.6,26.1,22.2,75,45,20,30.45,30.14,6,1,9,0.00
2014-4-21,76.0,62.9,49.4,37.9,30.5,22.5,49,32,14,30.14,29.71,6,1,10,0.00
2014-4-22,63.2,56.7,44.6,53.5,42.6,33.3,88,62,33,29.71,29.48,6,2,16,0.15
2014-4-23,44.6,41.9,39.4,37.9,31.7,24.1,88,68,50,29.92,29.59,7,2,20,0.06
2014-4-24,49.9,41.9,33.9,23.5,18.4,15.3,57,40,25,30.06,29.92,6,2,22,0.00
2014-4-25,67.2,50.1,32.7,44.0,25.7,17.8,82,44,16,30.03,29.62,7,2,21,0.15
2014-4-26,50.9,45.5,41.9,44.7,38.0,35.2,86,75,60,29.92,29.63,5,1,16,0.19
2014-4-27,50.9,44.2,38.8,35.9,33.6,31.0,84,67,50,30.18,29.92,3,1,12,0.01
2014-4-28,61.0,48.6,33.7,34.2,31.1,27.1,82,54,31,30.19,29.99,5,1,12,0.00
2014-4-29,54.0,49.2,44.5,42.7,38.2,34.4,82,67,52,30.24,30.00,9,3,24,0.43
2014-4-30,48.5,45.0,41.5,45.7,40.0,35.7,90,83,71,30.24,29.82,5,1,15,1.06
2014-5-1,62.1,53.3,47.4,55.8,46.5,36.4,92,79,55,29.83,29.69,2,0,7,0.12
2014-5-2,56.6,52.7,48.9,40.3,38.3,36.0,64,58,46,29.79,29.68,5,1,14,0.00
2014-5-3,60.6,54.0,49.0,47.9,42.0,39.5,84,65,49,29.79,29.63,5,1,17,0.12
2014-5-4,52.6,47.9,43.0,40.9,37.0,34.2,83,66,52,29.85,29.63,9,2,22,0.05
2014-5-5,55.8,48.3,40.1,36.7,31.5,27.9,78,54,35,29.98,29.86,5,2,14,0.00
2014-5-6,57.3,50.4,42.9,34.3,30.2,28.1,65,47,33,30.09,29.86,5,1,17,0.00
2014-5-7,63.5,51.4,35.8,34.7,28.8,22.7,76,46,21,30.23,30.09,2,0,10,0.00
2014-5-8,74.4,61.0,47.7,54.4,41.6,32.3,87,50,33,30.09,29.97,3,1,10,0.14
2014-5-9,84.7,68.5,53.1,59.3,55.9,50.8,92,68,36,29.99,29.75,8,2,21,0.34
2014-5-10,74.9,67.6,58.4,57.8,49.5,28.5,80,55,24,29.87,29.73,5,1,16,0.43
2014-5-11,73.3,61.2,49.1,41.3,38.4,34.7,71,45,25,30.05,29.87,5,1,17,0.00
2014-5-12,84.2,69.4,51.9,56.8,47.4,41.2,77,48,26,30.05,29.96,2,0,8,0.01
2014-5-13,82.5,71.5,62.0,61.8,55.7,49.3,85,59,43,30.05,29.96,3,1,9,0.34
2014-5-14,84.1,72.2,59.8,62.4,56.9,47.6,88,60,42,30.09,29.97,6,1,17,0.66
2014-5-15,83.9,75.2,66.1,61.7,59.4,53.7,80,59,36,30.02,29.83,13,4,29,0.23
2014-5-16,67.2,53.4,43.8,60.6,48.6,38.4,92,84,74,29.92,29.77,2,0,10,1.26
2014-5-17,55.8,48.4,41.2,40.8,36.8,33.1,90,66,45,30.10,29.88,2,0,12,0.00
2014-5-18,59.4,49.3,39.7,41.4,33.9,26.3,84,59,29,30.22,30.10,2,0,12,0.02
2014-5-19,67.9,54.3,39.2,42.2,37.7,31.2,84,56,33,30.18,30.08,2,0,12,0.00
2014-5-20,72.8,59.7,43.4,46.3,40.1,35.6,87,52,26,30.12,29.94,2,0,7,0.00
2014-5-21,73.8,64.2,53.1,57.3,50.7,42.5,81,63,44,29.94,29.74,6,1,13,0.00
2014-5-22,73.0,63.8,58.3,58.5,53.8,44.9,85,71,52,29.81,29.70,3,0,12,0.03
2014-5-23,59.6,55.0,51.4,48.1,45.0,40.7,74,69,57,29.95,29.80,2,0,7,0.03
2014-5-24,70.1,60.1,53.5,52.4,47.2,44.3,72,63,50,30.05,29.94,3,1,9,0.00
2014-5-25,76.7,65.9,50.9,47.8,44.4,40.1,74,48,29,30.05,29.95,3,1,12,0.00
2014-5-26,83.9,74.1,63.6,52.7,48.4,42.0,55,41,31,29.96,29.81,5,1,15,0.00
2014-5-27,84.3,75.9,68.1,61.8,56.3,47.6,65,51,43,29.81,29.68,2,1,10,0.00
2014-5-28,72.8,60.6,54.9,60.6,49.3,44.3,89,67,55,30.05,29.70,2,1,9,0.00
2014-5-29,67.5,60.3,54.2,49.8,44.6,39.7,70,57,46,30.10,30.01,3,1,7,0.00
2014-5-30,72.4,61.5,49.2,52.7,47.2,41.3,83,61,40,30.08,30.00,5,1,13,0.00
2014-5-31,72.5,61.4,47.4,49.0,42.2,36.4,81,53,27,30.19,30.07,5,1,12,0.00
2014-6-1,79.4,67.2,49.0,47.6,45.1,41.0,77,48,30,30.24,30.04,5,1,14,0.00
2014-6-2,87.6,76.5,64.9,66.0,54.9,46.4,84,49,36,30.05,29.83,3,1,15,0.06
2014-6-3,83.6,75.0,65.2,65.2,62.0,51.4,83,65,46,29.86,29.65,3,1,13,0.07
2014-6-4,72.8,64.2,52.7,52.0,48.4,41.8,72,57,46,29.81,29.67,2,0,12,0.00
2014-6-5,66.3,58.7,51.0,49.1,44.6,40.0,74,60,49,29.77,29.64,2,1,9,0.00
2014-6-6,68.5,61.0,53.4,50.2,46.2,42.3,77,59,48,29.91,29.77,2,1,12,0.00
2014-6-7,78.1,66.4,52.4,53.1,47.8,44.6,80,54,32,29.97,29.85,2,0,8,0.00
2014-6-8,82.5,68.9,52.5,60.4,50.5,43.2,89,55,33,29.88,29.71,5,0,10,0.35
2014-6-9,70.5,67.2,63.1,62.9,61.6,60.2,93,83,73,29.86,29.78,1,0,6,0.01
2014-6-10,78.5,70.2,64.0,64.9,60.9,58.4,92,74,53,29.88,29.82,1,0,5,0.00
2014-6-11,69.4,66.9,64.7,59.8,55.1,51.0,82,66,58,29.90,29.84,6,1,14,0.10
2014-6-12,71.8,68.3,64.4,59.4,55.3,51.4,69,63,59,29.87,29.75,5,1,14,0.08
2014-6-13,80.6,69.9,65.2,66.1,59.1,52.7,81,69,52,29.74,29.58,3,0,18,0.26
2014-6-14,64.3,57.6,51.5,54.7,44.5,39.8,71,62,55,29.98,29.73,2,0,7,0.00
2014-6-15,70.8,62.2,55.5,52.0,47.7,44.3,76,60,48,30.09,29.98,1,0,8,0.00
2014-6-16,84.7,69.6,51.9,62.7,53.9,45.6,84,61,32,30.03,29.84,2,0,7,0.00
2014-6-17,88.4,76.4,64.1,64.5,60.2,56.0,84,59,35,29.96,29.59,5,1,21,0.18
2014-6-18,73.2,68.6,65.4,61.1,57.5,55.5,78,68,59,29.91,29.66,2,0,9,0.00
2014-6-19,75.2,67.2,54.6,59.2,49.7,39.2,82,56,28,29.99,29.88,2,0,13,0.00
2014-6-20,69.6,61.0,48.5,49.2,44.8,39.8,85,58,35,29.99,29.89,2,1,12,0.00
2014-6-21,74.5,63.4,49.6,48.5,45.3,43.0,84,55,34,29.91,29.81,2,1,10,0.00
2014-6-22,77.5,65.9,50.7,52.1,47.0,43.0,85,54,31,29.90,29.84,3,1,8,0.00
2014-6-23,83.9,71.4,53.9,59.7,53.8,45.8,78,56,38,29.95,29.84,5,1,14,0.00
2014-6-24,84.2,75.1,69.1,70.1,60.4,52.7,89,62,47,30.00,29.84,6,1,15,0.61
2014-6-25,74.6,70.4,67.3,68.6,66.3,63.3,91,87,80,29.91,29.85,1,0,5,1.22
2014-6-26,79.1,71.1,65.1,63.1,59.2,55.3,79,67,51,30.03,29.87,2,0,10,0.00
2014-6-27,82.7,71.7,59.5,63.1,55.0,49.8,91,59,33,30.17,30.04,1,0,5,0.00
2014-6-28,85.0,74.4,60.3,65.6,59.1,50.3,75,60,47,30.25,30.16,1,0,5,0.00
2014-6-29,88.4,78.5,67.3,65.7,61.0,56.1,71,56,42,30.17,30.00,2,1,12,0.04
2014-6-30,88.3,79.5,72.3,69.4,64.3,59.3,70,60,49,30.01,29.83,3,0,9,0.01
2014-7-1,90.8,82.2,75.4,72.7,67.9,64.2,78,63,48,29.83,29.68,7,1,17,0.09
2014-7-2,86.5,78.9,71.5,70.3,67.3,64.0,90,69,48,29.89,29.71,2,0,9,0.08
2014-7-3,79.7,70.6,65.8,68.4,65.7,62.6,91,85,67,29.96,29.87,1,0,7,0.16
2014-7-4,70.4,64.8,59.2,62.2,54.4,48.4,91,71,49,30.11,29.95,2,0,10,0.00
2014-7-5,77.5,67.7,56.4,55.3,50.7,44.8,83,57,32,30.19,30.05,2,0,7,0.00
2014-7-6,81.8,73.1,61.8,54.3,49.6,45.6,58,44,33,30.06,29.83,2,0,16,0.00
2014-7-7,80.9,73.5,66.6,66.2,59.7,49.9,77,62,48,29.82,29.63,3,0,17,0.24
2014-7-8,85.6,76.9,70.5,70.3,63.8,57.8,80,64,54,29.71,29.46,6,1,23,0.34
2014-7-9,75.8,68.7,61.2,64.1,58.1,53.2,82,69,59,29.97,29.62,2,0,10,0.16
2014-7-10,73.2,65.2,55.5,54.9,48.2,43.9,77,56,37,30.17,29.98,2,0,7,0.00
2014-7-11,78.2,66.7,51.6,54.4,49.6,44.4,79,57,37,30.25,30.15,2,0,6,0.00
2014-7-12,86.4,73.7,61.3,66.0,58.0,52.4,75,59,42,30.17,29.99,2,0,8,0.00
2014-7-13,81.1,75.0,69.0,68.2,64.5,56.8,82,70,58,29.99,29.80,5,1,15,0.05
2014-7-14,81.7,73.6,67.9,67.6,64.7,62.9,86,75,58,29.92,29.81,1,0,6,0.02
2014-7-15,80.5,71.8,65.8,66.3,62.2,51.8,87,73,56,29.81,29.70,2,0,12,0.03
2014-7-16,73.3,66.8,58.6,54.9,51.9,48.9,74,59,48,29.97,29.81,2,0,12,0.00
2014-7-17,70.7,63.6,56.2,59.0,52.7,49.4,84,68,48,30.15,29.96,1,0,6,0.08
2014-7-18,76.4,65.9,53.8,56.3,52.8,49.8,88,65,45,30.28,30.15,1,0,5,0.01
2014-7-19,79.4,69.6,57.2,61.0,55.8,51.8,85,63,39,30.26,30.15,3,0,9,0.00
2014-7-20,80.2,73.2,66.7,59.4,57.4,54.8,71,58,44,30.18,30.08,5,1,9,0.00
2014-7-21,85.3,76.3,67.1,65.8,62.0,57.8,75,62,46,30.17,30.10,3,1,8,0.00
2014-7-22,88.3,79.3,67.2,68.1,65.4,63.0,88,65,44,30.14,29.94,3,1,9,0.00
2014-7-23,85.7,76.1,66.3,68.6,63.2,52.8,79,65,54,29.95,29.81,3,1,12,0.16
2014-7-24,69.3,64.9,58.1,55.4,48.7,44.4,78,57,41,30.03,29.93,3,1,10,0.00
2014-7-25,76.7,66.8,55.5,55.9,52.8,50.2,86,63,41,30.08,29.96,2,0,7,0.00
2014-7-26,79.3,70.9,58.2,57.6,56.0,53.4,85,61,44,29.99,29.79,3,1,10,0.00
2014-7-27,78.6,73.3,66.8,69.0,63.2,57.5,91,71,56,29.79,29.62,2,0,10,0.78
2014-7-28,70.1,63.4,58.6,64.1,60.0,56.0,92,89,75,29.80,29.54,1,0,12,2.29
2014-7-29,70.1,61.9,54.3,57.7,52.4,48.6,93,73,48,30.00,29.80,1,0,6,0.00
2014-7-30,75.1,62.3,52.5,57.1,53.2,48.8,89,74,47,30.03,29.95,1,0,9,0.24
2014-7-31,76.4,63.6,55.6,60.5,56.8,52.7,92,80,51,30.11,30.00,1,0,10,0.36
2014-8-1,83.2,71.2,57.4,62.8,59.0,55.1,92,68,41,30.17,30.10,1,0,5,0.03
2014-8-2,82.1,72.1,63.4,66.9,62.1,58.9,88,72,51,30.15,30.04,1,0,5,0.32
2014-8-3,79.8,68.3,63.4,66.7,62.7,59.3,93,83,59,30.11,30.01,1,0,4,0.63
2014-8-4,80.5,71.5,64.6,63.5,60.9,59.5,84,71,51,30.09,30.02,0,0,6,0.00
2014-8-5,80.1,69.9,63.1,65.8,61.0,57.5,92,74,56,30.04,29.97,1,0,7,0.02
2014-8-6,75.7,68.7,62.8,62.6,56.7,47.5,90,68,39,29.97,29.92,2,0,10,0.00
2014-8-7,74.9,67.0,59.6,57.2,54.6,50.9,86,66,45,30.06,29.94,2,0,7,0.00
2014-8-8,75.9,66.6,57.0,59.4,55.6,51.0,89,69,49,30.15,30.05,2,0,6,0.00
2014-8-9,79.3,67.8,55.7,60.1,55.2,49.9,87,66,41,30.18,30.10,2,0,6,0.00
2014-8-10,81.3,69.6,56.1,62.0,57.2,52.1,91,68,38,30.18,30.08,2,0,6,0.00
2014-8-11,84.0,73.1,61.3,65.6,58.4,54.9,86,63,37,30.10,29.97,5,1,15,0.00
2014-8-12,72.4,68.7,64.2,64.9,61.2,55.7,90,78,61,29.97,29.77,7,1,17,0.57
2014-8-13,74.7,67.8,60.8,66.6,61.1,49.4,95,80,58,29.83,29.72,2,0,12,0.81
2014-8-14,66.7,59.5,55.3,53.1,51.1,48.9,90,74,56,29.89,29.80,2,0,8,0.04
2014-8-15,66.5,59.5,53.2,53.4,51.2,49.3,90,75,56,29.94,29.87,1,0,10,0.05
2014-8-16,73.1,63.6,54.4,58.7,54.0,49.3,91,72,51,29.95,29.84,1,0,8,0.43
2014-8-17,69.1,63.7,58.6,60.2,57.7,55.5,93,82,66,29.95,29.81,1,0,5,0.04
2014-8-18,70.2,62.3,53.0,57.8,53.5,49.2,91,74,52,29.97,29.89,2,0,7,0.00
2014-8-19,77.6,64.9,49.9,61.1,55.0,47.0,91,72,54,29.94,29.83,3,0,8,0.01
2014-8-20,80.0,69.9,61.2,68.6,63.9,57.8,93,82,61,29.94,29.86,1,0,5,0.20
2014-8-21,79.3,70.5,65.8,70.9,66.3,63.7,94,87,72,29.97,29.90,1,0,6,0.38
2014-8-22,76.9,69.1,64.7,69.7,64.8,60.8,95,87,70,30.01,29.93,1,0,6,0.00
2014-8-23,72.3,67.1,62.7,63.4,61.2,59.4,91,82,71,30.13,30.01,1,0,8,0.02
2014-8-24,78.9,68.4,58.1,64.6,59.0,55.1,97,75,44,30.20,30.10,2,0,7,0.01
2014-8-25,81.8,70.3,58.1,64.0,60.3,56.7,95,73,46,30.20,30.08,2,0,5,0.00
2014-8-26,84.0,73.4,59.7,61.1,58.2,56.0,89,62,40,30.13,29.96,2,0,10,0.00
2014-8-27,76.5,72.1,61.9,67.2,62.0,55.3,87,71,56,29.98,29.93,2,0,9,0.00
2014-8-28,68.1,63.5,58.5,59.4,54.6,48.5,90,74,51,30.09,29.94,2,0,10,0.00
2014-8-29,73.7,63.2,50.7,56.8,53.3,48.2,93,72,47,30.21,30.09,1,0,8,0.00
2014-8-30,81.7,70.6,58.6,65.1,59.8,53.7,85,70,53,30.15,29.97,6,2,14,0.00
2014-8-31,78.4,74.2,70.2,71.2,68.1,64.5,93,82,72,29.98,29.89,3,1,12,0.32
2014-9-1,84.9,76.2,66.9,69.2,67.2,64.7,94,75,55,29.98,29.82,2,0,8,0.01
2014-9-2,84.8,74.9,63.3,70.8,67.1,60.6,94,78,56,29.85,29.72,5,0,12,0.63
2014-9-3,78.1,69.7,63.0,65.2,61.0,56.9,96,76,50,30.06,29.85,1,0,3,0.00
2014-9-4,84.0,72.3,59.4,65.6,62.1,56.8,93,72,49,30.11,30.00,0,0,0,0.00
2014-9-5,89.0,79.4,68.0,69.9,67.4,64.4,91,69,50,30.08,29.85,3,1,12,0.00
2014-9-6,78.6,69.1,62.2,68.2,63.0,56.6,90,81,63,29.98,29.81,1,0,10,0.06
2014-9-7,71.3,62.3,53.0,57.6,51.7,42.4,94,71,38,30.22,29.98,2,0,7,0.00
2014-9-8,77.7,64.0,49.5,56.8,50.9,47.0,92,66,39,30.32,30.19,3,0,12,0.00
2014-9-9,74.9,66.5,55.8,58.2,54.5,51.3,86,66,53,30.25,30.07,5,1,10,0.00
2014-9-10,76.8,70.0,61.9,61.9,59.0,56.1,83,69,58,30.07,29.75,5,1,20,0.00
2014-9-11,75.2,66.7,57.4,67.1,58.2,49.9,90,74,65,30.05,29.61,7,2,25,0.15
2014-9-12,58.0,51.8,43.8,48.8,44.2,39.0,90,76,56,30.25,30.07,2,0,9,0.17
2014-9-13,62.8,50.1,42.0,58.2,45.4,37.8,92,84,72,30.28,30.05,6,0,17,0.39
2014-9-14,60.2,51.5,43.8,44.6,41.9,39.3,87,71,49,30.36,30.22,1,0,6,0.00
2014-9-15,67.4,57.2,45.1,53.0,45.5,41.1,88,67,41,30.24,30.00,2,0,12,0.07
2014-9-16,64.2,57.3,50.0,55.3,49.5,44.5,92,77,50,30.02,29.97,2,0,8,0.21
2014-9-17,67.9,56.6,46.5,49.4,44.9,41.1,83,67,44,30.05,29.92,2,0,8,0.00
2014-9-18,59.8,52.9,43.6,51.6,45.5,35.2,87,76,67,30.22,29.95,2,0,7,0.00
2014-9-19,60.7,48.2,34.5,40.1,36.0,27.7,89,65,42,30.38,30.16,3,0,8,0.00
2014-9-20,73.9,66.4,49.9,58.7,53.6,40.9,71,63,58,30.17,29.87,7,2,22,0.00
2014-9-21,77.1,67.6,60.8,66.9,58.5,52.5,88,73,62,29.88,29.51,6,1,20,0.22
2014-9-22,61.3,52.8,49.2,52.3,42.6,37.6,83,69,54,30.18,29.60,2,0,10,0.00
2014-9-23,68.5,56.7,45.2,50.0,44.4,38.2,79,65,48,30.37,30.18,1,0,8,0.00
2014-9-24,74.4,60.9,48.1,54.3,49.4,42.7,83,68,45,30.54,30.38,2,0,6,0.00
2014-9-25,69.8,59.7,50.0,53.0,48.9,44.4,83,69,48,30.43,30.25,2,0,9,0.00
2014-9-26,74.1,59.9,46.9,57.3,50.5,42.9,87,73,54,30.31,30.19,2,0,6,0.00
2014-9-27,77.7,62.7,51.2,59.2,53.0,46.0,87,72,51,30.28,30.16,1,0,5,0.00
2014-9-28,77.8,62.9,49.9,58.7,52.8,44.7,89,71,47,30.18,29.99,1,0,5,0.00
2014-9-29,78.1,64.0,53.0,59.1,55.5,50.7,94,77,45,29.98,29.84,1,0,5,0.00
2014-9-30,75.1,64.5,54.4,61.5,57.6,52.7,95,80,61,29.92,29.82,2,0,9,0.00
2014-10-1,72.9,63.7,56.3,59.7,56.5,52.7,92,78,58,30.06,29.92,1,0,7,0.00
2014-10-2,73.2,61.9,51.9,58.2,54.1,49.8,94,77,52,30.13,30.02,2,0,7,0.00
2014-10-3,73.0,64.3,55.9,57.6,54.6,52.1,88,72,55,30.01,29.61,5,1,26,0.03
2014-10-4,64.4,55.4,42.6,56.7,50.7,35.2,93,84,74,29.69,29.51,3,1,17,0.53
2014-10-5,54.3,47.1,38.6,42.4,36.1,29.5,81,66,56,29.89,29.69,3,0,9,0.01
2014-10-6,67.7,55.3,38.9,44.6,38.7,32.0,77,55,38,29.92,29.80,7,2,21,0.00
2014-10-7,68.8,63.2,57.7,51.3,46.5,42.1,77,55,39,29.88,29.67,5,2,17,0.01
2014-10-8,64.4,57.0,51.2,53.5,43.8,29.5,88,63,40,29.88,29.60,5,1,17,0.87
2014-10-9,62.0,52.4,44.5,39.6,35.8,31.6,69,54,34,30.02,29.85,5,1,20,0.00
2014-10-10,57.9,49.5,41.9,41.4,38.5,35.3,79,67,49,30.11,30.02,2,0,12,0.00
2014-10-11,56.9,47.3,40.4,43.2,37.9,33.3,84,71,47,30.19,30.08,2,0,9,0.00
2014-10-12,59.2,46.0,34.8,38.3,34.6,29.0,85,66,42,30.32,30.17,2,0,7,0.00
2014-10-13,68.9,55.9,41.5,54.0,44.7,31.0,73,66,59,30.20,30.08,5,1,17,0.00
2014-10-14,80.7,72.0,62.7,61.6,56.6,53.1,72,59,44,30.08,29.86,8,3,31,0.00
2014-10-15,73.9,69.8,63.7,63.5,59.2,57.4,87,70,59,29.86,29.75,8,1,22,0.28
2014-10-16,74.7,64.9,54.7,61.7,57.5,52.7,93,78,55,29.75,29.53,1,0,4,0.81
2014-10-17,67.6,60.2,52.7,53.2,50.2,46.8,93,71,51,29.62,29.50,2,0,12,0.00
2014-10-18,61.4,53.4,44.0,52.3,47.7,37.3,89,81,70,29.81,29.49,1,0,8,0.11
2014-10-19,44.0,40.9,37.9,38.4,30.5,26.0,82,67,53,30.05,29.81,1,0,9,0.03
2014-10-20,54.4,47.9,37.2,41.2,34.6,29.1,74,61,49,30.03,29.86,5,0,9,0.01
2014-10-21,52.2,49.0,46.7,46.5,44.2,41.2,85,83,78,30.02,29.82,1,0,3,0.03
2014-10-22,55.7,48.1,43.8,44.1,41.3,39.3,86,78,63,30.15,30.02,1,0,5,0.01
2014-10-23,53.6,47.9,42.8,41.5,38.2,34.9,83,70,56,30.05,29.92,1,0,9,0.00
2014-10-24,60.7,51.2,45.7,43.0,38.7,32.2,79,63,44,29.94,29.85,1,0,12,0.00
2014-10-25,65.4,54.7,45.4,45.9,41.9,35.4,76,63,45,29.88,29.50,2,0,17,0.06
2014-10-26,53.4,47.7,44.1,41.1,38.7,33.6,79,72,50,29.84,29.54,2,1,14,0.31
2014-10-27,57.0,49.8,44.1,40.2,37.2,35.2,73,62,47,30.03,29.84,2,1,9,0.00
2014-10-28,77.5,61.0,47.4,58.3,46.8,36.8,86,62,40,29.90,29.69,5,1,15,0.01
2014-10-29,62.3,53.6,47.9,58.3,42.5,36.9,87,66,53,29.92,29.78,3,1,9,0.03
2014-10-30,48.2,44.3,39.4,40.2,35.4,30.8,80,71,58,30.05,29.92,2,1,9,0.01
2014-10-31,49.8,43.6,37.6,37.4,32.8,30.1,81,66,51,30.03,29.93,2,0,8,0.00
2014-11-1,45.1,40.2,37.2,33.8,30.3,27.9,76,68,56,30.07,29.95,5,1,15,0.01
2014-11-2,42.5,38.2,35.2,27.0,23.0,19.5,64,54,40,30.16,30.06,7,2,17,0.00
2014-11-3,57.7,48.8,38.3,34.6,29.3,17.6,70,49,21,30.17,30.03,3,1,12,0.00
2014-11-4,68.0,59.3,51.1,41.4,30.3,23.8,44,34,23,30.07,29.85,5,1,14,0.00
2014-11-5,59.0,49.7,38.2,43.8,35.2,31.0,76,58,37,30.11,29.87,5,1,17,0.00
2014-11-6,48.5,41.8,37.6,38.0,34.8,30.7,81,76,62,30.10,29.70,2,0,8,0.06
2014-11-7,40.3,36.8,34.1,34.7,29.7,25.0,82,75,67,29.97,29.70,3,0,9,0.01
2014-11-8,46.3,40.2,34.1,27.2,25.3,22.5,71,56,45,30.00,29.76,3,1,12,0.00
2014-11-9,47.3,43.6,41.1,33.2,29.1,26.8,70,57,47,29.96,29.78,3,1,10,0.01
2014-11-10,56.7,50.6,42.5,34.3,32.4,29.5,66,50,39,30.11,29.96,7,1,20,0.00
2014-11-11,65.9,57.9,50.7,47.3,37.9,32.7,65,48,36,29.96,29.75,8,2,20,0.00
2014-11-12,60.6,45.9,36.6,49.7,31.8,19.5,80,59,45,30.14,29.73,3,2,16,0.01
2014-11-13,37.7,34.5,31.0,28.6,24.1,19.0,87,67,49,30.14,30.04,3,1,8,0.01
2014-11-14,35.1,30.1,27.2,27.7,23.0,17.6,82,75,55,30.22,30.03,5,1,12,0.00
2014-11-15,35.3,30.3,22.6,25.0,22.1,15.9,81,71,61,30.37,30.22,2,0,10,0.00
2014-11-16,40.3,36.7,31.9,25.7,21.7,18.8,70,54,45,30.30,30.01,3,1,12,0.00
2014-11-17,39.5,34.6,32.5,34.1,29.8,21.3,90,83,52,30.01,29.51,2,0,8,0.00
2014-11-18,32.9,24.0,21.6,18.7,7.9,3.7,63,50,41,29.98,29.65,8,4,27,0.00
2014-11-19,30.1,24.7,19.3,15.8,7.9,2.8,70,49,33,30.22,29.85,6,3,18,0.00
2014-11-20,32.5,28.1,24.8,22.6,15.9,7.2,81,61,36,30.01,29.83,7,3,18,0.00
2014-11-21,28.7,24.7,20.9,18.4,12.1,9.4,77,59,45,30.48,30.01,5,2,15,0.00
2014-11-22,44.6,34.6,23.2,36.8,19.5,5.8,76,56,24,30.46,30.04,3,2,12,0.00
2014-11-23,54.5,49.3,44.3,40.3,38.3,36.6,83,66,51,30.10,29.98,3,1,12,0.00
2014-11-24,71.0,63.4,47.7,53.7,49.3,37.7,76,61,48,29.68,29.32,9,4,26,0.04
2014-11-25,48.8,43.4,36.8,37.1,28.2,22.7,77,56,42,30.23,29.68,6,2,29,0.00
2014-11-26,36.9,33.0,27.2,26.6,24.3,22.4,88,71,57,30.26,30.03,1,0,8,0.00
2014-11-27,30.3,28.3,25.0,27.3,25.1,21.2,90,88,85,30.11,30.03,0,0,3,0.00
2014-11-28,26.1,25.0,23.5,22.2,17.4,12.6,87,73,59,30.27,30.11,3,1,12,0.00
2014-11-29,36.5,29.3,23.2,23.5,17.8,13.5,67,62,57,30.29,30.01,6,1,16,0.01
2014-11-30,58.6,47.8,36.8,46.9,35.7,23.4,67,63,58,30.02,29.89,5,2,18,0.00
2014-12-1,58.6,39.8,29.1,47.8,29.6,13.2,87,67,51,30.64,29.89,5,2,16,0.01
2014-12-2,33.7,27.6,19.7,29.1,17.5,9.8,87,66,52,30.73,30.17,5,1,10,0.00
2014-12-3,44.9,40.1,34.2,37.5,32.6,22.4,86,75,61,30.22,29.96,5,2,17,0.01
2014-12-4,34.6,30.2,23.0,23.1,19.9,18.0,84,66,55,30.58,30.22,5,1,12,0.00
2014-12-5,34.4,28.3,21.8,30.0,22.9,17.7,88,80,65,30.60,30.31,2,0,8,0.00
2014-12-6,36.8,34.1,30.3,35.0,31.4,25.2,93,90,81,30.52,30.24,2,0,5,0.00
2014-12-7,30.3,24.7,19.5,24.8,12.5,8.0,80,60,43,30.78,30.52,1,0,6,0.00
2014-12-8,32.2,24.9,18.7,18.8,10.4,2.3,72,55,28,30.72,30.38,3,0,14,0.00
2014-12-9,36.6,31.9,26.5,31.5,26.0,18.7,86,79,71,30.38,30.01,1,0,12,0.00
2014-12-10,32.8,29.7,27.9,27.9,26.2,24.6,89,87,81,30.01,29.71,3,1,10,0.00
2014-12-11,28.1,26.5,24.5,25.8,24.0,21.7,91,90,88,29.94,29.69,2,0,7,0.00
2014-12-12,29.1,26.6,23.7,26.4,23.8,20.8,90,89,87,30.13,29.93,1,0,5,0.00
2014-12-13,33.9,30.0,23.0,32.1,27.1,19.7,93,89,84,30.12,29.99,1,0,6,0.00
2014-12-14,36.9,34.8,33.5,34.5,32.4,31.4,93,91,90,30.10,29.97,1,0,4,0.00
2014-12-15,37.1,35.3,34.1,33.7,30.7,27.7,90,83,75,30.18,30.09,0,0,0,0.00
2014-12-16,43.8,38.0,34.0,37.5,32.3,27.4,87,80,72,30.09,29.86,1,0,6,0.00
2014-12-17,41.1,39.9,38.9,37.5,36.2,35.1,87,87,86,29.86,29.84,0,0,2,0.00
2014-12-23,41.4,40.3,38.1,37.5,36.0,33.7,87,85,83,30.07,28.77,2,0,7,0.00
2014-12-24,53.4,45.1,40.4,49.6,41.4,35.6,93,87,83,30.00,29.32,2,0,9,0.00
2014-12-25,60.1,45.1,39.9,53.6,33.0,26.4,87,63,50,30.14,29.31,10,3,30,0.00
2014-12-26,46.1,39.5,30.4,29.3,27.3,24.3,78,62,50,30.28,30.14,6,1,14,0.00
2014-12-27,54.5,44.5,29.5,37.4,32.8,23.7,81,65,48,30.24,29.89,7,1,16,0.00
2014-12-28,53.7,39.5,34.2,42.1,29.9,21.8,85,69,48,30.13,29.83,6,2,17,0.01
2014-12-29,34.4,29.4,23.2,25.0,17.5,10.3,80,61,48,30.34,30.12,5,1,10,0.00
2014-12-30,23.8,21.1,17.4,18.2,10.9,5.7,81,65,47,30.51,30.34,5,1,14,0.00
2014-12-31,24.5,21.7,18.7,9.1,4.2,-0.3,59,47,34,30.37,30.05,8,3,25,0.00
2015-1-1,34.1,26.2,19.9,22.6,10.5,4.3,77,52,31,30.07,29.86,8,2,20,0.00
2015-1-2,31.5,27.0,19.2,23.9,20.0,15.0,84,75,57,30.51,29.99,6,1,15,0.00